www.pogodaiklimat.ru

Погода и климат >> Архив погоды >> Сенегал >> Kedougou


ПОГОДА в Kedougou

  • Прогноз погоды в Kedougou
  • Монитор погоды в Kedougou
  • Климат города

АРХИВ ПОГОДЫ в Kedougou

Время (UTC), дата Ветер
(напр.,м/с)
 
Видим.   Явления Облачность Т
(С)
Тd
(С)
f
(%)
Тe
(С)
Тes
(С)
Комфортность P
(гПа)
Po
(гПа)
Тmin
(С)
Tmax
(С)
R
(мм)
R24
(мм)
S
(см)
06 13.09 штиль 0 10 км 8/0
[Ac trans]
+24.5 +23.8 96 +33 +33 очень
душно
1010.5 991.7 +21.5 3
09 13.09 штиль 0 10 км 8/4 400 м
[Cu med, cong Ac trans]
+27.0 +23.4 81 +37 +40 очень
душно
1012.2 993.3
12 13.09 СЗ 2 10 км 8/8 450 м
[Cu med, cong]
+31.0 +24.7 69 +44 +48 опасность
перегрева
1011.8 993.0
15 13.09 В 3 10 км гроза без осадков 8/8 450 м
[Cb cap]
+33.0 +23.8 59 +45 +47 опасность
перегрева
1008.9 990.2
18 13.09 СВ 2 10 км {гроза} 8/4 480 м
[Cb cap Ci sp]
+32.5 +24.1 61 +44 +45 опасность
перегрева
1007.3 988.6 +34.5
03 14.09 штиль 0 10 км гроза без осадков 8/5 400 м
[Cb cap]
+25.0 +23.6 92 +34 +34 очень
душно
1009.8 991.2
06 14.09 штиль 0 10 км гроза без осадков 8/6 400 м
[Cb cap]
+23.5 +20.8 85 +29 +29 душно 1011.5 992.7 +20.5
09 14.09 штиль 0 10 км в посл. час дождь 9/3 150 м
[St Ac As]
+22.0 +20.5 91 +28 +30 душно 1012.9 994.0
12 14.09 ЮВ 2 10 км {гроза, дождь} 8/0
[Ac trans Ci sp]
+29.0 +22.5 68 +38 +53 опасность
солнечного
удара
1010.9 992.2 3
15 14.09 В 2 10 км 6/0
[Ac trans Ci sp]
+33.0 +23.0 56 +43 +56 опасность
перегрева
1009.3 990.7
18 14.09 СВ 1 12 км 4/4 450 м
[Cu med, cong]
+32.5 +24.8 64 +46 +46 опасность
перегрева
1008.4 989.7 +34.8
03 15.09 штиль 0 10 км 5/5 450 м
[Sc]
+23.5 +22.0 91 +30 +30 очень
душно
1009.7 991.0
06 15.09 штиль 0 10 км 8/0
[Ci sp]
+23.5 +22.0 91 +30 +30 очень
душно
1010.5 991.8 +20.5 3
09 15.09 СЗ 2 10 км 9/8 400 м
[Sc Ci sp]
+26.0 +24.3 90 +36 +37 очень
душно
1011.8 992.9
12 15.09 СЗ 1 10 км 9/8 450 м
[Cu med, cong Ci sp]
+30.5 +23.4 66 +41 +45 опасность
перегрева
1011.9 993.1
15 15.09 штиль 0 10 км 8/6 450 м
[Cu med, cong Ci sp]
+33.0 +24.6 61 +46 +53 опасность
перегрева
1009.9 991.2
18 15.09 СВ 1 10 км 5/3 450 м
[Cu med, cong Ci sp]
+32.5 +25.6 67 +47 +48 опасность
перегрева
1009.3 990.6 +34.5
03 16.09 штиль 0 10 км 6/0
[Ci sp]
+26.0 +24.6 92 +37 +37 очень
душно
1010.7 992.0
06 16.09 штиль 0 10 км 8/0
[Ac trans Ci fib]
+24.5 +23.8 96 +33 +33 очень
душно
1010.9 992.2 +21.0
09 16.09 З 1 10 км 8/3 400 м
[Sc Ac trans]
+27.5 +23.9 81 +38 +41 очень
душно
1012.5 993.7
12 16.09 СЗ 2 10 км 9/8 450 м
[Cu med, cong Ac trans]
+31.0 +24.7 69 +44 +47 опасность
перегрева
1010.2 992.9
15 16.09 З 1 10 км 9/5 450 м
[Cu med, cong Ac trans Ci sp]
+34.5 +24.3 55 +47 +52 опасность
перегрева
1009.1 990.5
18 16.09 З 1 10 км 9/3 450 м
[Cu med, cong Ac trans Ci sp]
+32.5 +24.8 64 +46 +46 опасность
перегрева
1008.2 989.5 +36.0
06 17.09 штиль 0 8000 м гроза, ливневой дождь 9/3 900 м
[Cb cap Ac As]
+22.6 +21.7 95 +30 +30 очень
душно
1008.7 990.0 +20.0 33
09 18.09 Ю 1 10 км 6/3 450 м
[Cu med, cong Ac trans Ci sp]
+28.0 +24.5 81 +39 +43 очень
душно
1010.9 992.2
12 18.09 ЮВ 3 12 км гроза без осадков 9/6 450 м
[Cb cap]
+32.5 +23.9 61 +44 +48 опасность
перегрева
1011.4 992.7
15 18.09 В 1 8000 м гроза, ливневой дождь 10/3 150 м
[Cb cap As op]
+24.0 +23.3 96 +32 +35 очень
душно
1009.3 990.3
18 18.09 СЗ 1 8000 м гроза, ливневой дождь 9/3 150 м
[Cb cap Ac As]
+24.0 +23.3 96 +32 +32 очень
душно
1008.9 989.9 +32.5 27
06 19.09 штиль 0 10 км {дождь} 9/0
[Ac As]
+23.0 +22.3 96 +31 +31 очень
душно
1010.0 991.0 +20.0 30
09 19.09 штиль 0 10 км 6/0
[Ac trans Ci sp]
+27.2 +23.1 78 +36 +42 очень
душно
1012.4 993.5

 

Местоположение метеостанции Kedougou (Сенегал): широта 12.57 долгота -12.21 высота над уровнем моря 167 м.

В архиве по умолчанию представлена погода в Kedougou за последнюю неделю. Архивные данные за месяц целиком и за предыдущие месяцы, начиная с января 2011 года, Вы можете получить, выбрав интересующий диапазон дат из раскрывающегося списка и нажав кнопку "Ввод!".


*Определитесь, кто Вы:
робот инопланетянин человек

Внимание! Время в таблицах - всемирное. Для получения местного времени необходимо прибавить поправку, которая в Kedougou равна 0 ч.

Смотрите также архив погоды в соседних городах и на ближайших метеорологических станциях:

Погода в Kenieba (Мали) (111 км)
Погода в Koundara (Гвинея) (141 км)
Погода в Fatoto (Гамбия) (195 км)
Погода в Tambacounda (Сенегал) (208 км)
Погода в Kayes (Мали) (223 км)
Погода в Basse (Гамбия) (230 км)
Погода в Bafata (Гвинея-Биссау) (271 км)
Погода в Kindia (Гвинея) (289 км)
Погода в Georgetown (Гамбия) (297 км)
Погода в Kolda (Сенегал) (300 км)

Пояснения к столбцам:

Ветер - указаны скорость ветра в м/с - средняя за 10 мин, порывы в срок и между сроками (в фигурных скобках) и направление, откуда дует ветер: С - северный, СВ - северо-восточный, В - восточный, ЮВ - юго-восточный, Ю - южный, ЮЗ - юго-западный, З - западный, СЗ - северо-западный.
Видимость - горизонтальная дальность видимости в метрах или километрах. При видимости от 1 до 10 км при отсутствии осадков обычно наблюдается дымка, при ухудшении видимости до 1 км и менее - туман. В сухую погоду видимость может ухудшаться дымом, пылью или мглою.
Явления - указаны атмосферные явления, наблюдавшиеся в срок или в последний час перед сроком; фигурными скобками обозначены явления, наблюдавшиеся между сроками (за 1-3 часа до срока); квадратными скобками обозначены град или гололедные отложения с указанием их диаметра в мм.
Облачность - указаны через наклонную черту общая и нижняя облачность в баллах и высота нижней границы облаков в метрах; квадратными скобками обозначены формы облаков: Ci - перистые, Cs - перисто-слоистые, Cc - перисто-кучевые, Ac - высококучевые, As - высокослоистые, Sc - слоисто-кучевые, Ns - слоисто-дождевые, Cu - кучевые, Cb - кучево-дождевые. Подробнее классификацию облаков см. в Атласе облаков (PDF).
T - Температура воздуха - температура, измеренная на высоте 2 м над землей.
Td - Температура точки росы - температура, при понижении до которой содержащийся в воздухе водяной пар достигнет насыщения.
f - Относительная влажность воздуха - влажноcть воздуха, измеренная на высоте 2 м над землей.
Te - Эффективная температура - температура, которую ощущает одетый по сезону человек в тени. Характеристика душности погоды. При расчете учитывается влияние влажности воздуха и скорости ветра на теплоощущения человека.
Tes - Эффективная температура на солнце - температура, которую ощущает человек, с поправкой на солнечный нагрев. Характеристика знойности погоды. Зависит от высоты солнца над горизонтом, облачности и скорости ветра. Ночью, в пасмурную погоду, а также при ветре 12 м/с и более поправка равна нулю.
P - Атмосферное давление - приведенное к уровню моря атмосферное давление.
Po - Атмосферное давление - измеренное на уровне метеостанции атмосферное давление.
Tmin - Минимальная температура - минимум температуры воздуха на высоте 2 м над землей.
Tmax - Максимальная температура - максимум температуры воздуха на высоте 2 м над землей.
R - Количество осадков - Количество выпавших осадков за период времени, мм. При наведении курсора мыши на число - период времени, за который выпало указанное количество осадков.
R24 - Количество осадков - Количество выпавших осадков за 24 часа, мм.
S - Снежный покров - Высота снежного покрова, см. При наведении курсора мыши на число - состояние снежного покрова и степень покрытия местности в баллах.